Simultaneous Nadir Overpasses (SNOs) Predictions

Prediction of SNOs between GOES-16 and NOAA-19 Satellite Orbit:

Table of predicted SNOs for the next 14.0 days since TLE Epoch: 3/7/2020
Index Date Time (GOES-16) GOES-16 Lat,Lon NOAA-19 Lat,Lon Distance(km) Time Diff (sec)
1 03/07/2020 22:29:34 -0.01, -75.18 0.60, -72.62 293.26 80
2 03/10/2020 10:47:52 0.01, -75.19 0.59, -77.56 271.79 80
3 03/11/2020 10:38:53 0.02, -75.19 -0.09, -74.72 53.52 80
4 03/12/2020 10:27:13 0.02, -75.19 -0.76, -71.87 378.91 80
5 03/14/2020 22:45:38 -0.01, -75.18 -0.42, -76.85 191.66 80
6 03/15/2020 22:36:38 -0.01, -75.18 0.28, -74.01 134.24 80
7 03/16/2020 22:24:58 -0.01, -75.19 0.92, -71.16 460.25 80
8 03/18/2020 10:54:59 -0.00, -75.22 0.85, -78.98 429.25 80
9 03/19/2020 10:43:19 0.00, -75.23 0.23, -76.12 102.91 80
10 03/20/2020 10:34:19 0.00, -75.24 -0.45, -73.28 223.69 80




NCC Satellite Simultaneous Nadir Overpasses (SNOs) Prediction Service
